Regional Weather Roundup
Issued by NWS

Home | Current Version | Previous Version | Text Only | Print | Product List | Glossary On
Versions: 1 2 3 4 5 6 7 8 9 10 11 12 13 14 15 16 17 18 19 20 21 22 23 24 25 26 27 28 29 30 31 32 33 34 35 36 37 38 39 40 41 42 43 44 45 46 47 48 49 50
000
ASUS44 KOUN 181110
RWROK

WEATHER ROUNDUP FOR OKLAHOMA
NATIONAL WEATHER SERVICE NORMAN OK
500 AM CST THU DEC 18 2014

NOTE: "FAIR" INDICATES FEW OR NO CLOUDS BELOW 12,000 FEET WITH NO
      SIGNIFICANT WEATHER AND/OR OBSTRUCTIONS TO VISIBILITY.

OKZ001>007-009>012-014-015-017-181200-
NORTHWEST OKLAHOMA AND THE PANHANDLE

CITY           SKY/WX    TMP DP  RH WIND       PRES   REMARKS
GAGE           CLOUDY    37  36  96 CALM      30.06S FOG
ENID/WOODRING  CLOUDY    36  36 100 E5        30.10F FOG     WCI  32
$$

OKZ016-021>023-033>039-044-045-181200-
SOUTHWEST OKLAHOMA

CITY           SKY/WX    TMP DP  RH WIND       PRES   REMARKS
LAWTON/REGL    CLOUDY    39  38  96 SE9       30.08F FOG     WCI  33
LAWTON/FT SILL CLOUDY    39  39 100 SE8       30.07S FOG     WCI  33
FREDERICK      FOG       40  39  97 SE9       30.05S VSB 1   WCI  34
CLINTON        CLOUDY    39  37  92 S3        30.08R FOG
HOBART         CLOUDY    38  38 100 CALM      30.08R FOG
ALTUS AFB      CLOUDY    40  40 100 SE5       30.07S FOG
$$

OKZ018>020-024>031-181200-
CENTRAL OKLAHOMA

CITY           SKY/WX    TMP DP  RH WIND       PRES   REMARKS
OKLAHOMA CITY  DRZL/FOG  39  37  92 SE3       30.10S VSB 1/2
OKC/WILEY POST CLOUDY    39  38  96 S6        30.11S FOG     WCI  35
OKC/TINKER AFB CLOUDY    37  37 100 S2        30.10S FOG
STILLWATER     CLOUDY    38  36  92 E6        30.12S FOG     WCI  33
GUTHRIE        CLOUDY    38  38 100 SE3       30.11F FOG
$$

OKZ008-013-054>072-181200-
NORTHEAST OKLAHOMA

CITY           SKY/WX    TMP DP  RH WIND       PRES   REMARKS
TULSA          DRIZZLE   36  36 100 SE7       30.16F FOG     WCI  30
TULSA/JONES    CLOUDY    36  36 100 SE5       30.16S FOG     WCI  32
PONCA CITY     CLOUDY    35  34  96 SE7       30.13S FOG     WCI  29
BARTLESVILLE   CLOUDY    34  33  96 NE3       30.17F FOG
MUSKOGEE       CLOUDY    36  34  92 SE6       30.18S FOG     WCI  31
$$

OKZ032-040>043-046>053-073>077-181200-
SOUTH CENTRAL/SOUTHEAST OKLAHOMA

CITY           SKY/WX    TMP DP  RH WIND       PRES   REMARKS
ARDMORE/DWNTWN CLOUDY    39  37  93 SE3       30.11F FOG
MCALESTER      CLOUDY    40  39  97 CALM      30.14F FOG
$$




USA.gov is the U.S. government's official web portal to all federal, state and local government web resources and services.